{"data":{"norad_id":59084,"intl_designator":"2024-041L","name":"STARLINK-31261","alt_names":[],"object_type":"PAYLOAD","status":"ACTIVE","operator":null,"country":"US","launch_date":"2024-02-29","launch_site_code":"AFETR","launch_vehicle":null,"mission":null,"orbit_class":"UNKNOWN","rcs_meters":null,"size_class":null,"mass_kg":null,"dimensions":null,"purposes":["comms"],"wikipedia_slug":null,"has_3d_model":false,"image_url":null,"decayed_at":null,"tle_current":{"epoch":"2026-05-24T22:57:09.029664Z","epoch_age_seconds":75347,"freshness":"FRESH","line1":"1 59084U 24041L   26144.95635451 -.00000638  00000+0 -13686-4 0  9998","line2":"2 59084  42.9986 240.1462 0000869 281.4142  78.6612 15.27573678125986","mean_motion":15.27573678,"eccentricity":8.69e-5,"inclination_deg":42.9986,"raan_deg":240.1462,"arg_perigee_deg":281.4142,"mean_anomaly_deg":78.6612,"bstar":-1.3686e-5,"rev_number":12598,"period_min":94.267138845004,"perigee_km":482.47178773047,"apogee_km":483.66426516407,"semimajor_km":6861.2050264473,"source":"CELESTRAK","updated_at":"2026-05-25T13:38:18.829761Z"}}}